| time (UTC) | temp F | wind direction | speed MPH | gust MPH | rain 1hr in | rain 24hr in | rain mn in | humidity % | barometer mb |
| 20260509053048 | 33 | 174 | 0.0 | 0.0 | 0.00 | 0.00 | 0.00 | 89 | 1012.8 |
| 20260509051531 | 34 | 174 | 0.0 | 0.0 | 0.00 | 0.00 | 0.00 | 89 | 1012.7 |
| 20260509050031 | 34 | 174 | 0.0 | 0.0 | 0.00 | 0.00 | 0.00 | 88 | 1012.6 |
| 20260509044527 | 34 | 174 | 0.0 | 1.0 | 0.00 | 0.00 | 0.00 | 88 | 1012.5 |
| 20260509043008 | 35 | 174 | 0.0 | 0.0 | 0.00 | 0.00 | 0.00 | 87 | 1012.4 |
| 20260509041506 | 35 | 174 | 0.0 | 0.0 | 0.00 | 0.00 | 0.00 | 87 | 1012.3 |
| 20260509040055 | 36 | 175 | 0.0 | 0.0 | 0.00 | 0.00 | 0.00 | 86 | 1012.2 |
| 20260509034601 | 36 | 174 | 0.0 | 1.0 | 0.00 | 0.00 | 0.00 | 86 | 1012.1 |
| 20260509033030 | 37 | 174 | 0.0 | 1.0 | 0.00 | 0.00 | 0.00 | 85 | 1012.2 |
| 20260509031530 | 37 | 175 | 0.0 | 1.0 | 0.00 | 0.00 | 0.00 | 85 | 1012.2 |
| 20260509030026 | 38 | 175 | 0.0 | 0.0 | 0.00 | 0.00 | 0.00 | 84 | 1012.1 |
| 20260509024523 | 38 | 174 | 0.0 | 0.0 | 0.00 | 0.00 | 0.00 | 83 | 1012.1 |
| 20260509023020 | 39 | 174 | 0.0 | 0.0 | 0.00 | 0.00 | 0.00 | 82 | 1011.9 |
| 20260509021517 | 40 | 174 | 0.0 | 0.0 | 0.00 | 0.00 | 0.00 | 81 | 1011.8 |
| 20260509020013 | 41 | 174 | 0.0 | 0.0 | 0.00 | 0.00 | 0.00 | 79 | 1011.7 |
| 20260509014511 | 42 | 174 | 0.0 | 0.0 | 0.00 | 0.00 | 0.00 | 78 | 1011.5 |
| 20260509013055 | 42 | 174 | 0.0 | 0.0 | 0.00 | 0.00 | 0.00 | 76 | 1011.3 |
| 20260509011550 | 43 | 174 | 0.0 | 0.0 | 0.00 | 0.00 | 0.00 | 74 | 1011.1 |
| 20260509010053 | 44 | 174 | 0.0 | 0.0 | 0.00 | 0.00 | 0.00 | 72 | 1010.7 |
| 20260509004542 | 46 | 174 | 0.0 | 0.0 | 0.00 | 0.00 | 0.00 | 68 | 1010.4 |
| 20260509003039 | 47 | 174 | 0.0 | 1.0 | 0.00 | 0.00 | 0.00 | 66 | 1010.1 |
| 20260509001534 | 48 | 174 | 0.0 | 0.0 | 0.00 | 0.00 | 0.00 | 63 | 1010.1 |
| 20260509000030 | 50 | 174 | 0.0 | 1.0 | 0.00 | 0.00 | 0.00 | 61 | 1010.1 |
| 20260508234528 | 51 | 174 | 0.0 | 1.0 | 0.00 | 0.00 | 0.00 | 52 | 1010.0 |
| 20260508233017 | 52 | 174 | 0.0 | 3.0 | 0.00 | 0.00 | 0.00 | 49 | 1009.8 |
| 20260508231516 | 53 | 170 | 0.0 | 5.0 | 0.00 | 0.00 | 0.00 | 47 | 1009.7 |
| 20260508230032 | 53 | 200 | 0.0 | 3.0 | 0.00 | 0.00 | 0.00 | 47 | 1009.7 |
| 20260508224516 | 54 | 327 | 0.0 | 1.0 | 0.00 | 0.00 | 0.00 | 45 | 1009.6 |
| 20260508223014 | 54 | 195 | 0.0 | 2.0 | 0.00 | 0.00 | 0.00 | 43 | 1009.3 |
| 20260508221533 | 55 | 156 | 0.0 | 3.0 | 0.00 | 0.00 | 0.00 | 39 | 1009.2 |
| 20260508220013 | 56 | 184 | 0.0 | 4.0 | 0.00 | 0.00 | 0.00 | 39 | 1009.2 |
| 20260508214512 | 56 | 198 | 0.0 | 4.0 | 0.00 | 0.00 | 0.00 | 38 | 1009.2 |
| 20260508213055 | 57 | 188 | 0.0 | 1.0 | 0.00 | 0.00 | 0.00 | 37 | 1009.2 |
| 20260508211554 | 58 | 293 | 0.0 | 3.0 | 0.00 | 0.00 | 0.00 | 35 | 1009.0 |
| 20260508210043 | 60 | 172 | 0.0 | 2.0 | 0.00 | 0.00 | 0.00 | 32 | 1008.9 |
| 20260508204542 | 63 | 169 | 0.0 | 5.0 | 0.00 | 0.00 | 0.00 | 30 | 1008.8 |
| 20260508203038 | 63 | 172 | 0.0 | 5.0 | 0.00 | 0.00 | 0.00 | 32 | 1008.7 |
| 20260508201537 | 62 | 194 | 2.0 | 6.0 | 0.00 | 0.00 | 0.00 | 33 | 1008.8 |
| 20260508200044 | 58 | 174 | 0.0 | 3.0 | 0.00 | 0.00 | 0.00 | 36 | 1008.9 |
| 20260508194534 | 56 | 180 | 0.0 | 6.0 | 0.00 | 0.00 | 0.00 | 38 | 1009.0 |
| 20260508193035 | 56 | 181 | 0.0 | 4.0 | 0.00 | 0.00 | 0.00 | 35 | 1008.9 |
| 20260508191533 | 57 | 225 | 0.0 | 3.0 | 0.00 | 0.00 | 0.00 | 34 | 1008.9 |
| 20260508190014 | 57 | 193 | 1.0 | 6.0 | 0.00 | 0.00 | 0.00 | 34 | 1008.8 |
| 20260508184514 | 58 | 6 | 0.0 | 7.0 | 0.00 | 0.00 | 0.00 | 34 | 1008.8 |
| 20260508183112 | 58 | 196 | 0.0 | 3.0 | 0.00 | 0.00 | 0.00 | 34 | 1008.9 |
| 20260508181654 | 58 | 186 | 0.0 | 2.0 | 0.00 | 0.00 | 0.00 | 34 | 1009.0 |
| 20260508180053 | 58 | 207 | 0.0 | 1.0 | 0.00 | 0.00 | 0.00 | 35 | 1009.1 |
| 20260508174542 | 59 | 174 | 0.0 | 7.0 | 0.00 | 0.00 | 0.00 | 34 | 1009.0 |
| 20260508173039 | 57 | 219 | 0.0 | 3.0 | 0.00 | 0.00 | 0.00 | 37 | 1009.2 |
| 20260508171539 | 54 | 184 | 0.0 | 1.0 | 0.00 | 0.00 | 0.00 | 37 | 1009.4 |
| 20260508170039 | 55 | 200 | 0.0 | 2.0 | 0.00 | 0.00 | 0.00 | 36 | 1009.4 |
| 20260508164538 | 56 | 184 | 0.0 | 3.0 | 0.00 | 0.00 | 0.00 | 36 | 1009.3 |
| 20260508163037 | 56 | 325 | 0.0 | 1.0 | 0.00 | 0.00 | 0.00 | 35 | 1009.3 |
| 20260508161537 | 56 | 174 | 0.0 | 2.0 | 0.00 | 0.00 | 0.00 | 35 | 1009.4 |
| 20260508160036 | 55 | 203 | 0.0 | 2.0 | 0.00 | 0.00 | 0.00 | 35 | 1009.5 |
| 20260508154518 | 55 | 191 | 0.0 | 5.0 | 0.00 | 0.00 | 0.00 | 37 | 1009.5 |
| 20260508153018 | 56 | 205 | 0.0 | 4.0 | 0.00 | 0.00 | 0.00 | 34 | 1009.7 |
| 20260508151600 | 59 | 259 | 0.0 | 6.0 | 0.00 | 0.00 | 0.00 | 32 | 1009.6 |
| 20260508150059 | 60 | 359 | 1.0 | 4.0 | 0.00 | 0.00 | 0.00 | 31 | 1009.4 |
| 20260508144540 | 59 | 204 | 0.0 | 5.0 | 0.00 | 0.00 | 0.00 | 33 | 1009.4 |
| 20260508143038 | 59 | 198 | 0.0 | 3.0 | 0.00 | 0.00 | 0.00 | 36 | 1009.4 |
| 20260508141524 | 57 | 170 | 0.0 | 6.0 | 0.00 | 0.00 | 0.00 | 37 | 1009.5 |
| 20260508140021 | 57 | 188 | 0.0 | 3.0 | 0.00 | 0.00 | 0.00 | 37 | 1009.7 |
| 20260508134516 | 55 | 187 | 0.0 | 3.0 | 0.00 | 0.00 | 0.00 | 41 | 1009.9 |
| 20260508133013 | 53 | 208 | 0.0 | 4.0 | 0.00 | 0.00 | 0.00 | 45 | 1009.9 |
| 20260508131508 | 50 | 186 | 0.0 | 9.0 | 0.00 | 0.00 | 0.00 | 52 | 1010.1 |
| 20260508130007 | 48 | 203 | 0.0 | 4.0 | 0.00 | 0.00 | 0.00 | 52 | 1010.0 |
| 20260508124507 | 47 | 153 | 1.0 | 5.0 | 0.00 | 0.00 | 0.00 | 55 | 1010.1 |
| 20260508123006 | 45 | 322 | 0.0 | 5.0 | 0.00 | 0.00 | 0.00 | 58 | 1010.1 |
| 20260508121603 | 43 | 174 | 0.0 | 4.0 | 0.00 | 0.00 | 0.00 | 73 | 1010.2 |
| 20260508120057 | 41 | 203 | 0.0 | 2.0 | 0.00 | 0.00 | 0.00 | 82 | 1010.2 |
| 20260508114555 | 40 | 212 | 0.0 | 1.0 | 0.00 | 0.00 | 0.00 | 84 | 1010.3 |
| 20260508113053 | 39 | 198 | 0.0 | 1.0 | 0.00 | 0.00 | 0.00 | 88 | 1010.3 |
| 20260508111551 | 38 | 207 | 0.0 | 0.0 | 0.00 | 0.00 | 0.00 | 89 | 1010.2 |
| 20260508110055 | 37 | 207 | 0.0 | 1.0 | 0.00 | 0.00 | 0.00 | 89 | 1010.1 |
| 20260508104617 | 36 | 207 | 0.0 | 1.0 | 0.00 | 0.00 | 0.00 | 91 | 1009.9 |
| 20260508103049 | 35 | 207 | 0.0 | 0.0 | 0.00 | 0.00 | 0.00 | 91 | 1009.7 |
| 20260508101530 | 35 | 207 | 0.0 | 0.0 | 0.00 | 0.00 | 0.00 | 91 | 1009.6 |
| 20260508100033 | 34 | 207 | 0.0 | 0.0 | 0.00 | 0.00 | 0.00 | 91 | 1009.5 |
| 20260508094512 | 34 | 207 | 0.0 | 0.0 | 0.00 | 0.00 | 0.00 | 90 | 1009.4 |
| 20260508093010 | 35 | 207 | 0.0 | 0.0 | 0.00 | 0.00 | 0.00 | 89 | 1009.3 |
| 20260508091619 | 35 | 207 | 0.0 | 1.0 | 0.00 | 0.00 | 0.00 | 90 | 1009.2 |
| 20260508090109 | 36 | 207 | 0.0 | 0.0 | 0.00 | 0.00 | 0.00 | 90 | 1009.1 |
| 20260508084558 | 36 | 207 | 0.0 | 0.0 | 0.00 | 0.00 | 0.00 | 90 | 1009.1 |
| 20260508083110 | 35 | 207 | 0.0 | 0.0 | 0.00 | 0.00 | 0.00 | 89 | 1009.2 |
| 20260508081600 | 35 | 207 | 0.0 | 1.0 | 0.00 | 0.00 | 0.00 | 89 | 1009.0 |
| 20260508080109 | 35 | 207 | 0.0 | 0.0 | 0.00 | 0.00 | 0.00 | 89 | 1008.9 |
| 20260508074555 | 35 | 207 | 0.0 | 0.0 | 0.00 | 0.00 | 0.00 | 89 | 1008.8 |
| 20260508073057 | 35 | 207 | 0.0 | 0.0 | 0.00 | 0.00 | 0.00 | 89 | 1008.6 |
| 20260508071537 | 35 | 207 | 0.0 | 0.0 | 0.00 | 0.00 | 0.00 | 89 | 1008.8 |
| 20260508070109 | 35 | 207 | 0.0 | 0.0 | 0.00 | 0.00 | 0.00 | 90 | 1008.9 |
| 20260508064519 | 34 | 207 | 0.0 | 1.0 | 0.00 | 0.00 | 0.00 | 90 | 1008.9 |
| 20260508063018 | 34 | 207 | 0.0 | 1.0 | 0.00 | 0.00 | 0.00 | 89 | 1008.9 |
| 20260508061507 | 34 | 207 | 0.0 | 0.0 | 0.00 | 0.00 | 0.00 | 89 | 1009.0 |
| 20260508060005 | 34 | 207 | 0.0 | 0.0 | 0.00 | 0.00 | 0.00 | 88 | 1009.0 |
| 20260508054504 | 34 | 207 | 0.0 | 0.0 | 0.00 | 0.00 | 0.00 | 88 | 1009.1 |